LRSV Weather Reports


Display with metric or nautical units.
time (UTC)temp
F
wind
direction
speed
MPH
gust
MPH
rain 1hr
in
rain 24hr
in
rain mn
in
humidity
%
barometer
mb
20260507160321 70 150 16.0 0.0 0.00 0.00 0.00 46 1012.0
20260507154820 72 140 20.0 0.0 0.00 0.00 0.00 44 1012.0
20260507153320 72 140 20.0 0.0 0.00 0.00 0.00 44 1012.0
20260507151820 73 150 21.0 0.0 0.00 0.00 0.00 41 1012.0
20260507150320 73 150 21.0 0.0 0.00 0.00 0.00 41 1012.0
20260507144820 75 160 20.0 0.0 0.00 0.00 0.00 36 1012.0
20260507143322 75 160 20.0 0.0 0.00 0.00 0.00 36 1012.0
20260507141820 75 150 21.0 0.0 0.00 0.00 0.00 39 1012.0
20260507140320 75 150 21.0 0.0 0.00 0.00 0.00 39 1012.0
20260507134821 75 150 23.0 0.0 0.00 0.00 0.00 39 1012.0
20260507133320 75 150 23.0 0.0 0.00 0.00 0.00 39 1012.0
20260507131817 75 140 21.0 0.0 0.00 0.00 0.00 39 1012.0
20260507130320 75 140 21.0 0.0 0.00 0.00 0.00 39 1012.0
20260507124820 75 140 21.0 0.0 0.00 0.00 0.00 41 1013.0
20260507123358 75 140 21.0 0.0 0.00 0.00 0.00 41 1013.0
20260507121820 75 150 20.0 0.0 0.00 0.00 0.00 41 1013.0
20260507120320 75 150 20.0 0.0 0.00 0.00 0.00 41 1013.0
20260507114820 77 130 16.0 0.0 0.00 0.00 0.00 44 1013.0
20260507113337 73 130 15.0 0.0 0.00 0.00 0.00 44 1014.0
20260507111820 73 130 15.0 0.0 0.00 0.00 0.00 44 1014.0
20260507110320 73 130 15.0 0.0 0.00 0.00 0.00 44 1014.0
20260507104819 73 120 15.0 0.0 0.00 0.00 0.00 47 1014.0
20260507103320 73 120 15.0 0.0 0.00 0.00 0.00 47 1014.0
20260507101820 73 130 13.0 0.0 0.00 0.00 0.00 47 1014.0
20260507100321 73 130 13.0 0.0 0.00 0.00 0.00 47 1014.0
20260507094820 73 130 10.0 22.0 0.00 0.00 0.00 50 1014.0
20260507093320 73 130 10.0 22.0 0.00 0.00 0.00 50 1014.0
20260507091822 73 160 8.0 0.0 0.00 0.00 0.00 47 1014.0
20260507090320 73 160 8.0 0.0 0.00 0.00 0.00 47 1014.0
20260507084820 72 160 7.0 0.0 0.00 0.00 0.00 50 1014.0
20260507083320 72 160 7.0 0.0 0.00 0.00 0.00 50 1014.0
20260507081820 70 150 7.0 0.0 0.00 0.00 0.00 50 1014.0
20260507080321 70 150 7.0 0.0 0.00 0.00 0.00 50 1014.0
20260507074821 68 160 7.0 0.0 0.00 0.00 0.00 53 1014.0
20260507073320 68 160 7.0 0.0 0.00 0.00 0.00 53 1014.0
20260507071820 64 180 6.0 0.0 0.00 0.00 0.00 60 1014.0
20260507070320 64 180 6.0 0.0 0.00 0.00 0.00 60 1014.0
20260507064820 64 180 6.0 0.0 0.00 0.00 0.00 60 1014.0
20260507063320 64 180 6.0 0.0 0.00 0.00 0.00 60 1014.0
20260507061829 61 200 10.0 0.0 0.00 0.00 0.00 63 1014.0
20260507060320 61 200 10.0 0.0 0.00 0.00 0.00 63 1014.0
20260507054820 57 200 11.0 0.0 0.00 0.00 0.00 67 1014.0
20260507053327 57 200 11.0 0.0 0.00 0.00 0.00 67 1014.0
20260507051820 55 200 11.0 0.0 0.00 0.00 0.00 72 1014.0
20260507050320 55 200 11.0 0.0 0.00 0.00 0.00 72 1014.0
20260507044817 54 200 11.0 0.0 0.00 0.00 0.00 77 1014.0
20260507043320 54 200 11.0 0.0 0.00 0.00 0.00 77 1014.0
20260507041820 52 200 13.0 0.0 0.00 0.00 0.00 82 1013.0
20260507040320 52 200 13.0 0.0 0.00 0.00 0.00 82 1013.0
20260507034817 50 210 11.0 0.0 0.00 0.00 0.00 82 1013.0
20260507033319 50 210 11.0 0.0 0.00 0.00 0.00 82 1013.0
20260507031820 52 210 13.0 0.0 0.00 0.00 0.00 77 1013.0
20260507030320 52 210 13.0 0.0 0.00 0.00 0.00 77 1013.0
20260507024820 50 210 13.0 0.0 0.00 0.00 0.00 82 1013.0
20260507023320 50 210 13.0 0.0 0.00 0.00 0.00 82 1013.0
20260507021820 52 210 10.0 0.0 0.00 0.00 0.00 77 1013.0
20260507020320 52 210 10.0 0.0 0.00 0.00 0.00 77 1013.0
20260507014820 50 190 8.0 0.0 0.00 0.00 0.00 82 1013.0
20260507013319 50 190 8.0 0.0 0.00 0.00 0.00 82 1013.0
20260507011820 50 180 8.0 0.0 0.00 0.00 0.00 82 1013.0
20260507010320 50 180 8.0 0.0 0.00 0.00 0.00 82 1013.0
20260507004820 50 180 10.0 0.0 0.00 0.00 0.00 82 1013.0
20260507003321 50 180 10.0 0.0 0.00 0.00 0.00 82 1013.0
20260507001820 54 190 10.0 0.0 0.00 0.00 0.00 72 1013.0
20260507000321 54 190 10.0 0.0 0.00 0.00 0.00 72 1013.0
20260506234820 54 180 13.0 0.0 0.00 0.00 0.00 72 1013.0
20260506233320 54 180 13.0 0.0 0.00 0.00 0.00 72 1013.0
20260506231821 54 180 11.0 0.0 0.00 0.00 0.00 72 1013.0
20260506230320 54 180 11.0 0.0 0.00 0.00 0.00 72 1013.0
20260506224816 55 180 10.0 0.0 0.00 0.00 0.00 67 1013.0
20260506223320 55 180 10.0 0.0 0.00 0.00 0.00 67 1013.0
20260506221820 57 180 10.0 0.0 0.00 0.00 0.00 63 1013.0
20260506220319 57 180 10.0 0.0 0.00 0.00 0.00 63 1013.0
20260506214836 59 180 11.0 0.0 0.00 0.00 0.00 59 1012.0
20260506213320 59 180 11.0 0.0 0.00 0.00 0.00 59 1012.0
20260506211817 59 170 11.0 0.0 0.00 0.00 0.00 59 1012.0
20260506210319 59 170 11.0 0.0 0.00 0.00 0.00 59 1012.0
20260506204821 61 170 11.0 0.0 0.00 0.00 0.00 55 1012.0
20260506203320 61 170 11.0 0.0 0.00 0.00 0.00 55 1012.0
20260506201817 63 160 13.0 0.0 0.00 0.00 0.00 52 1012.0
20260506200320 63 160 13.0 0.0 0.00 0.00 0.00 52 1012.0
20260506194839 63 160 16.0 0.0 0.00 0.00 0.00 52 1012.0
20260506193344 63 160 16.0 0.0 0.00 0.00 0.00 52 1012.0
20260506191821 64 170 18.0 0.0 0.00 0.00 0.00 46 1012.0
20260506190320 64 170 18.0 0.0 0.00 0.00 0.00 46 1012.0
20260506184825 66 170 18.0 0.0 0.00 0.00 0.00 40 1012.0
20260506183320 66 170 18.0 0.0 0.00 0.00 0.00 40 1012.0
20260506181820 66 170 16.0 0.0 0.00 0.00 0.00 40 1011.0
20260506180320 66 170 16.0 0.0 0.00 0.00 0.00 40 1011.0
20260506174820 68 160 17.0 0.0 0.00 0.00 0.00 38 1011.0
20260506173320 68 160 17.0 0.0 0.00 0.00 0.00 38 1011.0
20260506171820 70 160 17.0 0.0 0.00 0.00 0.00 35 1011.0
20260506170320 70 160 17.0 0.0 0.00 0.00 0.00 35 1011.0
20260506164820 72 160 20.0 0.0 0.00 0.00 0.00 33 1011.0
20260506163320 72 160 20.0 0.0 0.00 0.00 0.00 33 1011.0
20260506161820 73 160 18.0 0.0 0.00 0.00 0.00 29 1011.0